Waycross, GA

7:19 AM EDT on October 21, 2017 (GMT -0400)
Waycross-Ware County

Weather History for KAYS - February, 2013

Change the Weather History Date:

Monday, February 18, 2013

  Actual Average (KAMG) Record (KAMG)
Temperature  
Mean Temperature 42 °F -  
Max Temperature 60 °F 63 °F 83 °F (1956)
Min Temperature 24 °F 43 °F 14 °F (1958)
Degree Days  
Heating Degree Days 23    
Moisture  
Dew Point 28 °F    
Average Humidity 65    
Maximum Humidity 100    
Minimum Humidity 25    
Precipitation  
Precipitation 0.00 in - - ()
Sea Level Pressure  
Sea Level Pressure 30.33 in    
Wind  
Wind Speed 2 mph (SE)    
Max Wind Speed 14 mph    
Max Gust Speed 17 mph    
Visibility 10 miles    
Events      
Averages and records for this station are not official NWS values.
T = Trace of Precipitation, MM = Missing Value Source: NWS Daily Summary

Daily Weather History Graph

Daily Weather History Graph

Search for Another Location

Airport or City:

Trip Planner

Search our weather history database for the weather conditions in past years. The results will help you decide how hot, cold, wet, or windy it might be!

Date:

Astronomy

Feb. 18, 2013 Rise Set
Actual Time 7:07 AM EST 6:19 PM EST
Civil Twilight 6:43 AM EST 6:44 PM EST
Nautical Twilight 6:14 AM EST 7:12 PM EST
Astronomical Twilight 5:46 AM EST 7:40 PM EST
Moon 12:15 PM EST (2/18) 1:36 AM EST (2/18)
Length of Visible Light 12h 01m
Length of Day
11h 11m
First Quarter, 58% of the Moon is Illuminated
Feb 18
First Quarter
Feb 25
Full
Mar 4
Last Quarter
Mar 11
New
Mar 19
First Quarter

Hourly Weather History & Observations

Time (EST) Temp. Windchill Dew Point Humidity Pressure Visibility Wind Dir Wind Speed Gust Speed Precip Events Conditions
12:15 AM 28.4 °F - 23.0 °F 80% 30.35 in 10.0 mi Calm Calm - N/A   Unknown
12:35 AM 28.4 °F - 24.8 °F 86% 30.35 in 10.0 mi Calm Calm - N/A   Unknown
12:55 AM 26.6 °F - 24.8 °F 93% 30.35 in 10.0 mi Calm Calm - N/A   Unknown
1:15 AM 28.4 °F - 24.8 °F 86% 30.35 in 10.0 mi Calm Calm - N/A   Unknown
1:35 AM 28.4 °F - 24.8 °F 86% 30.35 in 10.0 mi Calm Calm - N/A   Unknown
1:55 AM 28.4 °F - 24.8 °F 86% 30.35 in 10.0 mi Calm Calm - N/A   Unknown
2:15 AM 26.6 °F - 23.0 °F 86% 30.35 in 10.0 mi Calm Calm - N/A   Unknown
2:35 AM 26.6 °F - 24.8 °F 93% 30.34 in 10.0 mi Calm Calm - N/A   Unknown
2:55 AM 26.6 °F - 24.8 °F 93% 30.34 in 10.0 mi Calm Calm - N/A   Unknown
3:15 AM 26.6 °F - 23.0 °F 86% 30.34 in 10.0 mi Calm Calm - N/A   Unknown
3:35 AM 26.6 °F - 24.8 °F 93% 30.34 in 10.0 mi Calm Calm - N/A   Unknown
3:55 AM 26.6 °F - 24.8 °F 93% 30.34 in 10.0 mi Calm Calm - N/A   Unknown
4:15 AM 28.4 °F - 24.8 °F 86% 30.35 in 10.0 mi Calm Calm - N/A   Unknown
4:35 AM 26.6 °F - 23.0 °F 86% 30.34 in 10.0 mi Calm Calm - N/A   Unknown
4:55 AM 26.6 °F - 24.8 °F 93% 30.34 in 10.0 mi Calm Calm - N/A   Unknown
5:15 AM 26.6 °F - 24.8 °F 93% 30.35 in 10.0 mi North - - N/A   Unknown
5:35 AM 26.6 °F - 23.0 °F 86% 30.35 in 10.0 mi Calm Calm - N/A   Unknown
5:55 AM 26.6 °F - 23.0 °F 86% 30.36 in 10.0 mi Calm Calm - N/A   Unknown
6:15 AM 26.6 °F - 24.8 °F 93% 30.37 in 10.0 mi Calm Calm - N/A   Unknown
6:35 AM 24.8 °F - 21.2 °F 86% 30.37 in 10.0 mi North - - N/A   Unknown
6:55 AM 24.8 °F - 23.0 °F 93% 30.37 in 10.0 mi Calm Calm - N/A   Unknown
7:15 AM 24.8 °F - 24.8 °F 100% 30.37 in 10.0 mi Calm Calm - N/A   Unknown
7:35 AM 26.6 °F - 24.8 °F 93% 30.38 in 10.0 mi Calm Calm - N/A   Unknown
7:55 AM 28.4 °F - 26.6 °F 93% 30.38 in 10.0 mi Calm Calm - N/A   Unknown
8:15 AM 30.2 °F - 26.6 °F 86% 30.39 in 10.0 mi Calm Calm - N/A   Unknown
8:35 AM 33.8 °F - 28.4 °F 81% 30.39 in 10.0 mi Calm Calm - N/A   Unknown
8:55 AM 39.2 °F - 28.4 °F 65% 30.40 in 10.0 mi Calm Calm - N/A   Unknown
9:15 AM 42.8 °F - 28.4 °F 57% 30.41 in 10.0 mi Calm Calm - N/A   Unknown
10:15 AM 48.2 °F - 23.0 °F 37% 30.43 in 10.0 mi Calm Calm - N/A   Unknown
10:35 AM 51.8 °F - 21.2 °F 30% 30.42 in 10.0 mi Calm Calm - N/A   Unknown
11:15 AM 53.6 °F - 21.2 °F 28% 30.43 in 10.0 mi SSE 6.9 mph - N/A   Clear
11:35 AM 53.6 °F - 21.2 °F 28% 30.42 in 10.0 mi East 5.8 mph - N/A   Clear
12:15 PM 55.4 °F - 21.2 °F 26% 30.40 in 10.0 mi SSE 4.6 mph - N/A   Clear
12:55 PM 57.2 °F - 21.2 °F 25% 30.37 in 10.0 mi SSE 5.8 mph - N/A   Clear
1:55 PM 59.0 °F - 23.0 °F 25% 30.34 in 10.0 mi SE 6.9 mph 16.1 mph N/A   Clear
2:35 PM 59.0 °F - 24.8 °F 27% 30.33 in 10.0 mi South 3.5 mph - N/A   Clear
3:15 PM 59.0 °F - 24.8 °F 27% 30.32 in 10.0 mi ESE 10.4 mph 17.3 mph N/A   Clear
3:35 PM 60.8 °F - 26.6 °F 27% 30.31 in 10.0 mi South 6.9 mph - N/A   Clear
3:55 PM 60.8 °F - 26.6 °F 27% 30.32 in 10.0 mi South 8.1 mph - N/A   Clear
4:15 PM 60.8 °F - 28.4 °F 29% 30.31 in 10.0 mi SSE 5.8 mph - N/A   Clear
4:35 PM 59.0 °F - 28.4 °F 31% 30.30 in 10.0 mi SE 6.9 mph - N/A   Clear
4:55 PM 60.8 °F - 30.2 °F 31% 30.30 in 10.0 mi SSE 10.4 mph - N/A   Clear
5:15 PM 60.8 °F - 30.2 °F 31% 30.30 in 10.0 mi South 6.9 mph - N/A   Clear
5:35 PM 59.0 °F - 30.2 °F 34% 30.29 in 10.0 mi South 8.1 mph - N/A   Clear
5:55 PM 57.2 °F - 32.0 °F 38% 30.29 in 10.0 mi SSE 6.9 mph - N/A   Clear
6:15 PM 55.4 °F - 32.0 °F 41% 30.29 in 10.0 mi SE 3.5 mph - N/A   Clear
6:35 PM 53.6 °F - 33.8 °F 47% 30.29 in 10.0 mi ESE 5.8 mph - N/A   Clear
6:55 PM 53.6 °F - 35.6 °F 51% 30.29 in 10.0 mi ESE 13.8 mph - N/A   Clear
7:15 PM 51.8 °F - 35.6 °F 54% 30.29 in 10.0 mi ESE 9.2 mph - N/A   Clear
7:35 PM 50.0 °F - 35.6 °F 58% 30.28 in 10.0 mi ESE 12.7 mph - N/A   Clear
7:55 PM 48.2 °F - 35.6 °F 62% 30.28 in 10.0 mi ESE 8.1 mph - N/A   Unknown
8:15 PM 48.2 °F - 35.6 °F 62% 30.28 in 10.0 mi ESE 8.1 mph - N/A   Unknown
8:35 PM 48.2 °F - 35.6 °F 62% 30.27 in 10.0 mi ESE 9.2 mph - N/A   Unknown
8:55 PM 46.4 °F 41.9 °F 35.6 °F 66% 30.27 in 10.0 mi SE 9.2 mph - N/A   Unknown
9:15 PM 46.4 °F 42.4 °F 35.6 °F 66% 30.27 in 10.0 mi SE 8.1 mph - N/A   Unknown
9:35 PM 46.4 °F 43.5 °F 35.6 °F 66% 30.27 in 10.0 mi SE 5.8 mph - N/A   Unknown
9:55 PM 46.4 °F 42.9 °F 35.6 °F 66% 30.26 in 10.0 mi SE 6.9 mph - N/A   Unknown
10:15 PM 44.6 °F 42.2 °F 35.6 °F 71% 30.27 in 10.0 mi SE 4.6 mph - N/A   Unknown
10:35 PM 44.6 °F 41.4 °F 35.6 °F 71% 30.25 in 10.0 mi SE 5.8 mph - N/A   Unknown
10:55 PM 44.6 °F 41.4 °F 35.6 °F 71% 30.25 in 10.0 mi SE 5.8 mph - N/A   Unknown
11:15 PM 44.6 °F 40.7 °F 35.6 °F 71% 30.24 in 10.0 mi SSE 6.9 mph - N/A   Unknown
11:35 PM 44.6 °F 41.4 °F 35.6 °F 71% 30.24 in 10.0 mi SE 5.8 mph - N/A   Unknown
11:55 PM 44.6 °F 43.1 °F 35.6 °F 71% 30.24 in 10.0 mi SE 3.5 mph - N/A   Unknown